Location: Camaret
(48.2753°N, 4.5961°W)
Time: 04:23:51
(UTC+00:00)

SeaSat 1 - Pass Details

Date: 29 October 2020
Orbit: 744 x 747 km, 108.0° (Epoch: 01 December)

Event Time Altitude Azimuth Distance (km) Brightness Sun altitude
Exits shadow 19:40:24 75° 3° (N) 778 2.4 -26.5°
Drops below altitude 10° 19:44:59 10° 333° (NNW) 2,274 5.4 -27.3°
Sets 19:47:15 0° 332° (NNW) 3,203 6.2 -27.7°
